[[{"header":{"parameterUnit":"m.s-1","parameterCategory":1,"la1":30.2991,"la2":30.254,"lo1":-89.0895,"lo2":-89.0444,"dy":0.0017,"dx":0.0017,"nx":28,"ny":28,"refTime":"2024-08-03T03:00:00:Z","depth":0,"parameterNumber":2,"parameterNumberName":"U-component_of_WINDS"},"data":[0,0,0,0,0,0,0,0,0,0,0,0,0,0,0,0,0,0,0,0,0,0,0,0,0,0,0,0,0,0,0,0,0,0,0,0,0,0,0,0,0,0,0,0,0,0,0,0,0,0,0,0,0,0,0,0,0,0,2.2504,2.2504,0,2.2536,2.2536,2.2536,2.25,2.2498,2.2497,2.2495,2.2532,2.2535,2.2537,0,0,0,0,0,0,0,0,0,0,0,0,0,2.2415,2.2417,2.2504,2.2504,2.2504,2.2535,2.2536,2.2536,2.25,2.2498,2.2496,2.2495,2.2532,2.2534,2.2537,0,0,0,0,0,0,0,0,0,0,0,0,0,2.2451,2.2417,2.2504,2.249,2.2489,2.2535,2.2536,2.2536,2.25,2.2498,2.2496,2.2494,2.2531,2.2534,2.2537,2.26,0,0,2.2548,2.2549,0,0,0,0,0,0,0,0,2.2449,2.2454,2.2491,2.2491,2.249,2.2511,2.2518,2.2558,2.2501,2.2496,2.2495,2.2493,2.2527,2.2531,2.2542,2.2602,2.2604,2.2548,2.255,2.2552,2.2553,0,0,0,0,0,0,0,2.2446,2.2453,2.2516,2.2492,2.2491,2.2483,2.2486,2.2526,2.2523,2.2496,2.2494,2.2498,2.2527,2.2538,2.2542,2.2604,2.2548,2.2551,2.2553,2.2555,2.2717,2.272,0,0,0,0,0,0,2.2445,2.2451,2.2515,2.2517,2.2464,2.2487,2.249,2.2507,2.2523,2.2523,2.2499,2.2496,2.2534,2.2538,2.2543,2.2617,2.2552,2.2555,2.2557,2.2715,2.2718,2.272,0,0,0,0,0,0,2.2443,2.2451,2.2514,2.2483,2.2491,2.249,2.251,2.2508,2.252,2.2525,2.2525,2.2512,2.2532,2.2539,2.2586,2.2618,2.2556,2.256,2.2712,2.2716,2.2719,2.2765,0,0,0,0,0,0,2.2441,2.2451,2.2473,2.2484,2.2492,2.2555,2.2512,2.251,2.2525,2.2521,2.2536,2.2537,2.2531,2.2581,2.2589,2.2621,2.2562,2.271,2.2714,2.2718,2.2761,2.277,2.2778,0,0,0,0,0,2.2438,2.2486,2.2475,2.2483,2.2521,2.2557,2.2562,2.2553,2.2528,2.2552,2.2555,2.2536,2.2613,2.2586,2.2595,2.2629,2.2707,2.2713,2.2718,2.2757,2.2768,2.2777,0,0,0,0,0,0,2.2481,2.2487,2.2475,2.2528,2.2542,2.255,2.258,2.2565,2.2587,2.2582,2.2571,2.2575,2.2625,2.2632,2.2602,2.269,2.2657,2.2664,2.2684,2.2694,2.2702,2.2699,2.2565,0,0,0,0,0,2.2496,2.2524,2.2529,2.2575,2.2583,2.258,2.2596,2.2587,2.2602,2.2608,2.2615,2.2631,2.2658,2.2677,2.2703,2.2762,2.2765,2.279,2.2798,2.2805,2.2811,2.2842,2.2853,2.2737,2.2737,2.2737,0,0,2.2529,2.2536,2.2554,2.2584,2.2594,2.2623,2.2586,2.2619,2.264,2.2614,2.2658,2.2664,2.2681,2.2734,2.2758,2.2742,2.2844,2.2812,2.2817,2.2819,2.2849,2.286,2.287,2.2741,2.274,2.2739,0,0,2.2603,2.2612,2.2651,2.2661,2.2676,2.2674,2.2684,2.2695,2.2697,2.2741,2.2721,2.2748,2.2796,2.2809,2.2822,2.2901,2.2885,2.291,2.2953,2.2984,2.2993,2.3001,2.3028,2.3038,2.2916,2.2916,2.2917,0,2.2642,2.2684,2.2673,2.2707,2.2721,2.2697,2.2737,2.2748,2.2771,2.2782,2.2763,2.2822,2.2832,2.2888,2.2907,2.2919,2.2929,2.2907,2.2992,2.3,2.3007,2.3033,2.3044,2.2919,2.2919,2.2919,2.2918,0,2.2731,2.2761,2.2791,2.2812,2.283,2.2867,2.2862,2.2881,2.2872,2.2872,2.2918,2.2929,2.2956,2.2969,2.2961,2.3024,2.3013,2.2994,2.2959,2.3022,2.3045,2.3055,2.2923,2.2922,2.2922,2.2921,0,0,2.2832,2.2846,2.2858,2.2866,2.2881,2.2905,2.2942,2.2967,2.2983,2.3001,2.303,2.3072,2.3053,2.3068,2.3061,2.3089,2.3149,2.3065,2.3066,2.3079,2.3218,2.3231,2.3243,2.3139,2.3141,2.3143,2.3216,0,2.2905,2.2966,2.2957,2.3016,2.3043,2.3022,2.3053,2.3066,2.3068,2.3093,2.3095,2.3124,2.3098,2.3107,2.3133,2.3136,2.3177,2.3131,2.3167,2.3169,2.3161,2.3256,2.327,2.3339,2.3226,2.3227,2.3228,0,2.2998,2.3017,2.3078,2.3088,2.3099,2.3128,2.315,2.3174,2.3189,2.3188,2.3204,2.3193,2.323,2.3196,2.3247,2.3216,2.3231,2.3235,2.3238,2.324,2.3201,2.3259,2.3361,2.337,2.3243,2.3242,2.3241,0,2.3063,2.3105,2.3146,2.3155,2.3168,2.3189,2.3196,2.3208,2.3224,2.3244,2.3254,2.3279,2.3293,2.3313,2.3309,2.3285,2.3361,2.3327,2.3361,2.3361,2.3377,2.3376,2.3481,2.339,2.3389,2.3389,2.3389,0,2.3145,2.3183,2.3176,2.3201,2.3243,2.3234,2.3276,2.3281,2.3293,2.3319,2.3303,2.3329,2.3322,2.3348,2.3346,2.3388,2.3395,2.3396,2.3394,2.3396,2.3396,2.3404,2.3399,2.3392,2.3391,2.3391,2.339,0,2.3224,2.3221,2.3265,2.3274,2.3277,2.3308,2.3316,2.334,2.3341,2.3375,2.3382,2.3384,2.3413,2.3411,2.3445,2.3444,2.3495,2.3489,2.3489,2.3488,2.3521,2.3518,2.3635,2.3649,2.355,2.3551,2.3551,0,2.3275,2.3304,2.3316,2.3331,2.3339,2.3366,2.3381,2.3373,2.339,2.3409,2.3432,2.346,2.3481,2.3529,2.3534,2.356,2.3553,2.3593,2.3557,2.3558,2.3552,2.355,2.3552,2.3599,2.36,2.3601,2.3602,0,2.3366,2.3363,2.3385,2.3407,2.3425,2.3443,2.3458,2.3473,2.3467,2.3487,2.3516,2.3533,2.3567,2.3594,2.3619,2.3627,2.3614,2.3613,2.3622,2.3623,2.3622,2.3621,2.3507,2.361,2.3609,2.3609,2.3608,2.3608,2.3432,2.3456,2.3467,2.3492,2.3503,2.3518,2.3541,2.3544,2.3568,2.3594,2.3589,2.3621,2.3636,2.3667,2.3678,2.3704,2.369,2.3704,2.3707,2.371,2.3713,2.3619,2.3709,2.3709,2.3708,2.3708,2.3708,0,2.352,2.3526,2.355,2.3571,2.3591,2.3576,2.3593,2.3611,2.3639,2.3654,2.3675,2.3708,2.3735,2.3742,2.3768,2.3787,2.3782,2.3794,2.3792,2.3794,2.3724,2.3713,2.3798,2.3798,2.3798,2.3798,2.3798,2.3798,2.3568,2.3607,2.3606,2.365,2.3657,2.3687,2.3698,2.3712,2.3723,2.3761,2.3782,2.3786,2.3798,2.3825,2.3849,2.385,2.386,2.3874,2.3873,2.3808,2.3799,2.379,2.3779,2.3877,2.3877,2.394,2.3941,2.3941]},{"header":{"parameterUnit":"m.s-1","parameterCategory":1,"la1":30.2991,"la2":30.254,"lo1":-89.0895,"lo2":-89.0444,"dy":0.0017,"dx":0.0017,"nx":28,"ny":28,"refTime":"2024-08-03T03:00:00:Z","depth":0,"parameterNumber":3,"parameterNumberName":"V-component_of_WINDS"},"data":[0,0,0,0,0,0,0,0,0,0,0,0,0,0,0,0,0,0,0,0,0,0,0,0,0,0,0,0,0,0,0,0,0,0,0,0,0,0,0,0,0,0,0,0,0,0,0,0,0,0,0,0,0,0,0,0,0,0,2.9061,2.9062,0,2.9163,2.9164,2.9165,2.914,2.9138,2.9136,2.9134,2.9234,2.9239,2.9243,0,0,0,0,0,0,0,0,0,0,0,0,0,2.8836,2.8841,2.9061,2.9062,2.9063,2.9163,2.9164,2.9165,2.9141,2.9138,2.9136,2.9134,2.9233,2.9238,2.9244,0,0,0,0,0,0,0,0,0,0,0,0,0,2.8936,2.8842,2.906,2.9063,2.9064,2.9162,2.9164,2.9166,2.9141,2.9138,2.9135,2.9132,2.9231,2.9238,2.9244,2.9345,0,0,2.9265,2.9268,0,0,0,0,0,0,0,0,2.893,2.8944,2.9061,2.9063,2.9064,2.9136,2.9122,2.9226,2.9142,2.9112,2.9134,2.9131,2.9204,2.9212,2.9238,2.935,2.9354,2.9266,2.927,2.9272,2.9274,0,0,0,0,0,0,0,2.8923,2.8939,2.9101,2.9063,2.9065,2.9056,2.9067,2.9141,2.9173,2.9114,2.9113,2.9125,2.9204,2.9232,2.924,2.9355,2.9265,2.9271,2.9275,2.9278,2.9549,2.9553,0,0,0,0,0,0,2.8916,2.8934,2.9098,2.9104,2.8989,2.9063,2.9075,2.9116,2.9172,2.9178,2.9128,2.9124,2.9221,2.9232,2.9244,2.9362,2.9272,2.9279,2.9283,2.9546,2.955,2.9554,0,0,0,0,0,0,2.8911,2.8931,2.9094,2.9019,2.9039,2.907,2.9116,2.9119,2.9147,2.9182,2.9187,2.9151,2.922,2.9234,2.9319,2.9365,2.9282,2.9288,2.9543,2.9548,2.9552,2.9602,0,0,0,0,0,0,2.8905,2.8929,2.897,2.902,2.9043,2.917,2.9119,2.9124,2.9159,2.9155,2.9205,2.921,2.9218,2.9309,2.9326,2.9373,2.9293,2.9539,2.9545,2.955,2.9596,2.9607,2.9617,0,0,0,0,0,2.8897,2.898,2.8972,2.8992,2.9095,2.9173,2.9186,2.9195,2.9163,2.9203,2.9224,2.9209,2.9358,2.9318,2.9337,2.9386,2.9536,2.9543,2.955,2.9591,2.9605,2.9617,0,0,0,0,0,0,2.8934,2.8986,2.8979,2.908,2.9122,2.9168,2.9219,2.921,2.926,2.9254,2.9261,2.9273,2.9359,2.9381,2.9336,2.9484,2.9442,2.9453,2.9467,2.948,2.9491,2.9483,2.9299,0,0,0,0,0,2.8954,2.9015,2.9057,2.9142,2.9164,2.9188,2.9222,2.9225,2.9268,2.9286,2.9314,2.9355,2.941,2.9447,2.95,2.9599,2.9607,2.9642,2.9653,2.9661,2.967,2.972,2.9735,2.9577,2.9577,2.9577,0,0,2.8996,2.9032,2.907,2.9151,2.9184,2.9244,2.9203,2.927,2.9313,2.9295,2.9377,2.9399,2.9444,2.9536,2.9578,2.9557,2.9716,2.967,2.9677,2.9681,2.9729,2.9744,2.9757,2.9582,2.9581,2.958,0,0,2.9102,2.9138,2.9211,2.9244,2.9295,2.9309,2.9327,2.9374,2.9388,2.947,2.9457,2.9508,2.9604,2.9636,2.9665,2.978,2.9766,2.9797,2.9852,2.9901,2.9913,2.9924,2.9962,2.9976,2.9806,2.9806,2.9806,0,2.9148,2.924,2.9249,2.9317,2.9351,2.9337,2.9409,2.9441,2.9506,2.9528,2.9505,2.9623,2.9653,2.975,2.9778,2.9803,2.982,2.9791,2.9911,2.9922,2.9933,2.9969,2.9983,2.981,2.9809,2.9809,2.9809,0,2.9291,2.9356,2.9408,2.9471,2.9512,2.9581,2.9598,2.9637,2.9635,2.9651,2.9733,2.9768,2.9827,2.985,2.985,2.9946,2.9931,2.991,2.9867,2.9951,2.9985,2.9999,2.9814,2.9813,2.9812,2.9811,0,0,2.9426,2.9491,2.951,2.9537,2.959,2.9638,2.9705,2.9763,2.9795,2.9839,2.9893,2.9973,2.9953,2.9985,2.9988,3.0031,3.0115,3.0003,3.0004,3.0021,3.0219,3.0234,3.025,3.0106,3.0109,3.0111,3.0214,0,2.9535,2.9655,2.9663,2.977,2.9827,2.9814,2.9871,2.9908,2.9925,2.9973,2.999,3.0046,3.0016,3.0035,3.0077,3.0096,3.0155,3.0089,3.0154,3.0156,3.0141,3.0268,3.0285,3.0381,3.0228,3.023,3.0232,0,2.9679,2.9728,2.9841,2.9882,2.9906,2.9959,3.001,3.0058,3.0098,3.0106,3.0141,3.0137,3.0202,3.0157,3.0245,3.02,3.0227,3.024,3.0243,3.0248,3.0198,3.0274,3.0412,3.0425,3.0254,3.0252,3.025,0,2.9762,2.9855,2.9934,2.9958,3.0009,3.0045,3.0068,3.0105,3.0138,3.0183,3.0204,3.0255,3.0283,3.0321,3.0329,3.0296,3.0415,3.0372,3.0421,3.0421,3.0446,3.0444,3.0588,3.0467,3.0467,3.0467,3.0466,0,2.9882,2.9951,2.9971,3.002,3.0095,3.0102,3.0176,3.0196,3.0229,3.0278,3.0269,3.0315,3.0324,3.0371,3.0378,3.0447,3.0461,3.0467,3.0467,3.0467,3.0466,3.0483,3.0476,3.047,3.047,3.0469,3.0468,0,2.9987,3.0004,3.0088,3.013,3.0141,3.0195,3.0228,3.0273,3.0287,3.035,3.0364,3.0386,3.0441,3.0453,3.0518,3.0522,3.0603,3.0599,3.059,3.0589,3.0637,3.0631,3.0795,3.0815,3.0683,3.0684,3.0685,0,3.0062,3.0114,3.0161,3.0194,3.0218,3.0272,3.0305,3.0313,3.0348,3.0396,3.0434,3.0487,3.0531,3.0618,3.0638,3.0686,3.0681,3.0735,3.0688,3.0685,3.0679,3.0675,3.0678,3.0743,3.0745,3.0746,3.0747,0,3.0191,3.0196,3.0246,3.0298,3.0338,3.0379,3.0418,3.0445,3.0457,3.0496,3.0552,3.0586,3.0651,3.0704,3.0752,3.0772,3.076,3.0761,3.0775,3.0774,3.0766,3.0768,3.0612,3.0757,3.0756,3.0756,3.0755,3.0755,3.0282,3.0326,3.0365,3.042,3.045,3.0485,3.0528,3.0547,3.0595,3.065,3.0651,3.0711,3.0746,3.0809,3.0832,3.0878,3.0861,3.0881,3.0885,3.089,3.0893,3.076,3.0887,3.0886,3.0886,3.0886,3.0886,0,3.0408,3.0432,3.0483,3.0537,3.0579,3.0566,3.0607,3.0642,3.0696,3.073,3.0772,3.0835,3.0885,3.0908,3.0956,3.0987,3.0983,3.1,3.0996,3.1,3.0907,3.0889,3.1002,3.1002,3.1002,3.1002,3.1002,3.1002,3.0479,3.0553,3.0562,3.0649,3.0672,3.0732,3.0756,3.0788,3.0815,3.0885,3.0927,3.0942,3.0971,3.1021,3.1064,3.107,3.1087,3.1105,3.1108,3.1019,3.1008,3.0996,3.0979,3.1109,3.111,3.1197,3.1198,3.1199]}]]